STARLINK-1159 (45057 NORAD) Tracking and Keplerian Element Data

This shows tracking and keplerian element data for the satellite.

Feedback or suggestion? Click here.




ElementValue
Catalog45057
NameSTARLINK-1159
Epoch Orbit402
Epoch Day52.91667824
Epoch Year2020
RAAN120.8381
Inclination52.9958
Eccentricity0.000148
Argument of Perigee61.9474
Mean Anonmoly203.6903
Mean Motion15.5161388
Decay Rate-0.00119796
L11 45057U 20006P 20052.91667824 -.00119796 00000-0 -20070-2 0 9997
L22 45057 52.9958 120.8381 0001480 61.9474 203.6903 15.51613880 4025

Live tracking and technical data element details for STARLINK-1159 (NORAD 45057). STARLINK-1159 can be tracked NOW for your location showing map with azimuth and elevation plus other details from your city location.

Track the satellite on the map from your city or location and see movement details for azimuth, elevation, latitude, longitude, range, height, and movement on the map or in text.







IsCatalogInMostPopularTable: catalog: 45057, numindb: 5
Update: records affected: 1



GetName: 45057 STARLINK-1159

Hit Count: updated at: Mon, 24 Feb 2020 18:39:29 GMT